Flag for United Kingdom Weather past 2 weeks in Sutton Coldfield, England, United Kingdom

Now
52 °F

Clear.


Feels Like: 49 °F
Forecast: 45 / 67 °F
Wind: 9 mph from Northwest

Location: Birmingham / Airport

Current Time: Jul 30, 2015 at 5:16:30 AM

Latest Report: Jul 30, 2015 at 4:20 AM


Visibility: 10 mi

Pressure: 30.01 "Hg

Humidity: 82%

Dew point: 46 °F

Location of Sutton ColdfieldLocation

Historic Weather in Sutton Coldfield — Graph

°F

Sutton Coldfield temperature yesterday

Maximum temperature yesterday: 61 °F (at 12:20 PM)
Minimum temperature yesterday: 50 °F (at 3:20 AM)
Average temperature yesterday: 56 °F

Past Weeks' High & Low Weather Summary

 TemperatureHumidityPressure
High75 °F (Jul 16, 4:50 PM)100% (Jul 15, 3:20 AM)30.12 "Hg (Jul 15, 3:20 AM)
Low46 °F (Jul 16, 4:20 AM)38% (Jul 19, 3:20 PM)29.36 "Hg (Jul 26, 7:50 PM)
Average60 °F74%29.84 "Hg
* Reported Jul 15 3:20 AM — Jul 30 3:50 AM, Sutton Coldfield, Weather by CustomWeather, © 2015

Note: Actual official high and low records may vary slightly from our data, if they occured in-between our weather recording intervals... More about our weather records

Advertising

Sutton Coldfield weather history for previous 24 hours

 ConditionsComfort  
Time TempWeatherWind HumidityBarometerVisibility
3:50 AM
Thu, Jul 30
52 °FClear.8 mph82%30.01 "Hg10 mi
3:20 AM52 °FClear.10 mph82%30.01 "Hg10 mi
2:50 AM52 °FClear.9 mph82%30.01 "Hg10 mi
2:20 AM52 °FClear.9 mph82%30.01 "Hg10 mi
1:50 AM52 °FClear.9 mph82%30.01 "Hg10 mi
1:20 AM52 °FClear.9 mph82%30.01 "Hg10 mi
12:50 AM54 °FClear.10 mph77%30.01 "Hg10 mi
12:20 AM54 °FClear.10 mph77%30.01 "Hg10 mi
11:50 PM
Wed, Jul 29
54 °FClear.12 mph82%29.98 "Hg10 mi
11:20 PM54 °FClear.10 mph82%29.98 "Hg10 mi
10:50 PM55 °FClear.9 mph82%29.98 "Hg10 mi
10:20 PM55 °FClear.9 mph82%29.98 "Hg10 mi
9:50 PM55 °FPassing clouds.6 mph82%29.98 "HgN/A
9:20 PM54 °FScattered showers. Passing clouds.7 mph94%29.95 "HgN/A
8:50 PM57 °FSprinkles. Scattered clouds.10 mph77%29.95 "HgN/A
8:20 PM57 °FScattered showers. Scattered clouds.9 mph77%29.95 "HgN/A
7:50 PM59 °FScattered showers. Scattered clouds.10 mph72%29.92 "HgN/A
7:20 PM57 °FScattered clouds.8 mph77%29.92 "HgN/A
6:50 PM57 °FLight rain. Scattered clouds.6 mph82%29.92 "HgN/A
6:20 PM55 °FSprinkles. Broken clouds.15 mph82%29.92 "HgN/A
5:50 PM61 °FScattered showers. Scattered clouds.8 mph59%29.92 "HgN/A
5:20 PM61 °FScattered clouds.9 mph59%29.92 "HgN/A
4:50 PM61 °FScattered showers. Scattered clouds.10 mph55%29.89 "HgN/A
4:20 PM61 °FScattered showers. Scattered clouds.13 mph59%29.89 "HgN/A
3:50 PM61 °FScattered showers. Passing clouds.9 mph68%29.89 "HgN/A
3:20 PM61 °FSprinkles. Scattered clouds.13 mph59%29.89 "HgN/A
2:50 PM61 °FCool.10 mph63%29.89 "HgN/A
2:20 PM57 °FScattered showers. Scattered clouds.8 mph77%29.89 "HgN/A
1:50 PM59 °FScattered clouds.13 mph68%29.86 "HgN/A
1:20 PM59 °FScattered clouds.10 mph72%29.86 "HgN/A
12:50 PM55 °FLight rain. Scattered clouds.8 mph82%29.86 "HgN/A
12:20 PM61 °FBroken clouds.13 mph59%29.83 "HgN/A
11:50 AM59 °FPartly sunny.12 mph59%29.83 "HgN/A
11:20 AM59 °FScattered clouds.13 mph59%29.83 "HgN/A
10:50 AM59 °FBroken clouds.12 mph63%29.83 "HgN/A
10:20 AM59 °FScattered clouds.9 mph63%29.80 "HgN/A
9:50 AM59 °FScattered clouds.10 mph63%29.80 "HgN/A
9:20 AM57 °FPartly sunny.10 mph67%29.80 "HgN/A
8:20 AM55 °FPassing clouds.9 mph77%29.80 "HgN/A
7:50 AM55 °FPassing clouds.8 mph77%29.80 "HgN/A
7:20 AM54 °FSunny.8 mph82%29.77 "Hg10 mi
6:50 AM52 °FPassing clouds.6 mph88%29.77 "HgN/A
6:20 AM50 °FClear.6 mph88%29.77 "Hg10 mi
5:50 AM50 °FClear.6 mph88%29.77 "Hg10 mi
5:20 AM50 °FClear.6 mph88%29.77 "Hg10 mi
Weather by CustomWeather, © 2015

See weather overviewHow to use our weather pages